Dewpoint
71 71 72 70 69 72 70 68 57 54 55 51 52 53 50 58 58 55 56 58 57 59 60 59 57 55 55 54 53 56 58 54 53 49 49 62 69 69 70 70 71 72 72 73 74 74 74 74 74 74 74 74 74 74 75 75 75 74 74 75 75 75 75 75 75 75 75 75 74 75 74 75 75 75 75 75 75 75 75 75 76 75 75 75 75 75 75 75 75 75 75 74 75 75 75 76 76
71 71 72 72 71 70 63 65 55 52 53 50 51 54 53 56 56 54 55 58 57 56 58 57 56 59 57 55 57 58 58 61 62 59 64 67 69 69 70 71 71 71 72 73 74 74 74 74 74 74 74 74 74 74 74 75 74 74 75 75 75 76 75 75 74 75 75 75 75 75 75 75 75 75 75 75 75 75 75 75 76 75 74 74 75 75 75 75 74 74 75 75 75 75 75 76 76
73 72 71 71 70 68 65 64 50 52 49 48 50 52 57 54 53 54 57 58 59 58 57 58 57 58 56 56 53 56 56 63 63 64 64 68 66 69 70 71 72 72 72 73 73 74 74 72 73 73 73 73 74 74 74 74 74 74 74 74 75 75 75 75 74 74 74 75 75 76 75 75 75 75 75 75 75 74 75 75 75 75 75 75 75 75 75 75 75 75 75 74 75 75 75 75 75
71 72 70 71 65 68 62 56 53 51 50 50 50 54 56 56 56 58 60 60 59 58 57 55 55 57 55 54 57 59 60 61 64 64 64 65 67 69 70 71 73 72 72 73 73 73 74 73 74 74 72 72 73 74 74 75 74 74 74 74 75 75 75 75 74 75 75 75 75 75 75 75 76 74 75 75 75 74 75 75 75 75 75 75 75 75 74 75 75 75 74 75 75 75 75 75 75
70 70 71 69 66 61 61 57 53 53 48 50 49 54 57 58 58 59 59 59 58 57 56 55 55 59 59 58 59 55 58 64 64 65 64 67 69 70 70 71 72 72 72 73 73 73 74 74 74 73 74 74 74 75 75 74 74 74 74 74 74 75 74 75 75 75 74 75 75 75 75 75 76 75 75 74 74 74 75 75 75 75 75 75 75 76 76 75 75 75 75 75 74 74 74 74 75
72 72 74 70 64 65 58 53 53 53 54 55 52 54 57 58 58 58 57 58 57 57 56 56 54 55 56 59 60 58 61 59 63 65 66 67 69 69 71 72 71 71 72 72 73 74 74 75 75 74 74 75 75 75 74 74 74 74 74 74 74 75 74 75 75 75 75 75 75 75 75 75 75 75 74 74 73 75 75 75 75 75 75 75 75 75 75 75 75 75 75 74 75 74 75 75 75
68 70 70 68 68 65 55 53 54 53 56 59 56 56 58 58 60 58 56 56 57 56 56 55 56 56 56 60 62 63 64 64 63 65 68 69 69 70 70 70 71 71 72 73 73 73 73 74 74 75 75 75 75 75 74 74 74 74 74 74 74 74 75 75 75 75 75 75 75 75 75 75 75 75 74 74 73 74 75 75 75 74 74 74 74 75 75 74 75 75 75 75 75 75 74 74 75
70 68 67 60 59 58 56 55 54 56 55 59 59 58 60 60 60 57 56 55 54 55 55 56 57 58 60 61 57 64 66 66 67 68 69 69 69 69 70 70 70 71 72 72 73 74 75 74 74 74 75 75 75 75 74 75 74 74 73 73 74 73 74 74 74 75 75 75 74 74 74 74 74 74 74 73 74 74 75 75 74 74 74 74 74 75 74 74 74 75 75 75 75 74 74 74 74
67 68 69 62 56 58 55 54 54 58 58 60 59 62 63 63 63 57 56 58 56 55 55 55 57 54 59 60 60 65 66 68 68 70 69 69 69 69 69 70 69 70 72 71 72 73 73 74 74 75 75 75 74 74 75 74 74 74 73 74 73 73 74 74 74 75 76 74 75 75 74 74 73 72 73 73 73 74 74 74 74 74 73 74 75 75 74 75 75 75 75 75 74 74 74 74 74
66 69 63 60 58 53 54 53 53 55 57 60 59 61 62 64 61 59 56 57 57 56 57 60 56 57 59 59 60 63 66 68 69 69 69 69 69 69 70 70 71 70 71 71 72 72 73 74 74 75 74 74 73 73 74 74 74 74 73 73 73 73 74 74 74 75 75 74 74 74 74 74 73 72 74 74 74 74 73 73 74 73 73 74 74 75 75 74 74 75 75 74 74 74 74 74 74
64 68 66 57 54 53 53 53 55 56 57 60 60 63 63 64 61 59 59 58 58 57 57 58 57 57 59 61 62 67 68 68 68 67 69 69 70 70 69 71 71 71 70 71 72 73 73 74 75 75 74 74 74 73 73 73 74 74 74 73 73 73 74 74 74 75 75 74 74 74 74 74 73 72 73 74 74 73 72 73 73 73 73 74 74 74 74 75 75 75 74 74 74 73 73 74 74
61 62 63 56 55 54 54 54 56 56 58 59 57 63 64 63 60 56 58 56 58 56 55 57 56 58 59 60 62 68 68 67 68 68 68 69 69 70 70 70 70 71 71 71 72 73 74 75 74 74 74 74 74 73 72 73 74 73 74 73 73 74 74 74 74 74 75 74 74 74 74 74 73 74 74 74 73 73 72 72 72 72 73 74 75 74 74 74 75 75 75 74 74 74 74 74 74
61 64 60 57 55 55 56 56 56 57 55 56 58 62 65 62 59 58 59 59 59 56 54 57 58 59 56 59 65 66 66 67 68 68 69 69 69 69 70 69 70 70 72 73 73 73 74 73 74 74 74 73 73 73 73 74 73 73 73 73 73 73 74 74 74 74 75 75 74 74 73 75 73 74 74 73 74 72 72 72 72 73 75 75 75 75 75 75 75 75 75 75 75 75 75 75 74
61 63 62 56 59 56 55 56 58 52 53 57 63 64 64 60 61 61 59 58 57 58 58 59 59 61 60 61 64 64 65 68 68 69 69 69 69 69 68 69 69 70 72 73 72 73 73 73 73 74 74 75 74 73 72 72 72 72 72 72 73 73 73 73 73 74 74 74 73 74 73 74 74 74 75 75 73 73 73 72 72 74 75 75 75 75 75 75 75 75 75 74 75 74 75 75 75
62 67 62 59 56 56 58 54 53 53 52 59 63 63 62 64 63 61 60 58 58 61 59 60 59 55 54 59 60 61 65 68 68 69 69 70 70 69 69 69 70 71 71 73 73 73 72 73 73 73 73 73 74 75 73 73 72 72 72 72 73 73 73 73 73 74 74 73 72 72 73 74 75 74 74 74 74 73 74 73 74 75 75 75 75 75 75 75 75 75 75 75 75 75 76 76 75
65 61 63 57 55 55 56 56 59 54 52 60 63 63 62 62 66 59 60 61 60 59 60 55 59 53 58 59 60 63 66 68 69 69 69 70 70 70 69 69 70 70 72 73 73 73 73 73 73 72 73 72 73 74 74 73 72 72 72 73 72 73 73 73 72 73 73 72 72 73 74 74 74 74 74 74 74 73 74 74 75 75 75 75 75 75 74 75 75 75 75 75 75 76 76 76 76
67 61 59 58 53 55 56 55 56 50 57 61 63 62 59 59 63 64 66 62 59 57 60 59 57 59 58 59 64 65 67 69 70 69 69 70 70 70 69 69 69 70 71 72 72 72 72 72 72 72 72 72 73 73 73 73 73 72 73 73 73 73 72 72 72 73 73 74 74 74 75 75 76 75 74 74 73 75 74 75 75 75 74 75 75 75 75 75 75 75 75 75 76 76 76 77 76
63 59 56 56 57 56 58 57 57 60 56 59 61 63 59 58 61 61 61 61 60 57 59 60 61 61 62 64 66 66 68 68 68 68 68 68 69 68 68 68 67 68 69 70 72 72 72 72 72 72 72 72 72 72 73 72 72 72 71 72 73 73 72 72 73 73 72 75 74 75 76 75 75 77 76 73 74 74 74 75 75 75 74 74 75 76 76 76 75 75 76 76 76 77 78 74 72
60 60 56 52 57 58 61 62 60 59 57 62 63 63 61 60 61 60 59 58 57 56 58 60 61 62 64 65 66 67 67 68 68 67 67 67 67 67 67 68 67 68 69 70 71 71 72 72 72 72 72 72 72 73 73 72 71 72 71 72 73 72 73 73 73 73 74 75 77 75 75 74 74 75 75 74 74 75 75 75 75 75 75 76 76 75 75 75 74 74 73 73 74 74 72 70 70
61 56 54 55 57 61 64 64 64 64 64 62 62 62 61 62 63 62 59 57 55 53 56 58 59 61 63 65 66 66 67 67 68 67 66 67 68 67 67 66 67 68 68 69 70 71 72 72 72 72 72 72 72 72 73 71 72 71 72 72 73 73 73 73 73 74 74 75 76 75 74 74 74 76 75 76 74 73 74 75 75 75 74 74 75 72 72 72 74 73 74 74 74 71 70 68 65
60 56 54 56 60 57 63 64 65 64 63 63 62 62 61 62 63 62 59 56 56 57 55 56 59 61 63 65 65 65 66 66 67 67 67 67 67 67 67 66 66 67 69 69 71 71 71 72 72 72 71 72 72 72 72 72 72 73 73 74 73 73 73 73 73 74 75 76 75 74 73 73 72 73 74 74 73 74 72 72 72 71 72 72 72 72 72 73 74 74 74 75 74 73 70 71 70
59 59 62 63 62 57 65 64 65 64 63 63 62 59 60 64 62 60 58 55 52 55 55 57 60 63 64 64 65 65 65 65 66 67 67 67 67 67 67 67 67 68 70 69 69 70 71 71 72 72 72 72 72 72 72 73 72 72 73 74 73 73 73 73 74 75 75 74 73 72 73 73 72 73 74 74 74 74 72 71 70 71 72 72 74 74 73 75 74 72 73 73 72 71 71 72 71
55 61 63 63 63 61 65 65 66 63 62 61 60 62 63 61 62 61 59 58 58 57 58 58 61 63 64 65 66 66 66 66 66 66 67 66 67 67 67 67 67 67 69 69 70 70 70 71 72 72 72 72 73 74 73 73 73 73 72 72 73 73 74 73 74 74 73 73 73 73 70 70 71 70 71 73 73 73 71 70 70 72 73 72 73 73 73 74 74 73 73 74 73 71 70 72 73
56 58 62 63 64 64 64 65 65 62 63 63 65 65 61 60 58 62 58 60 56 56 58 60 63 64 65 65 65 65 66 66 66 66 67 67 67 67 67 66 67 68 69 69 69 70 71 70 71 71 71 71 72 73 73 72 72 72 72 72 73 73 73 73 73 73 73 73 74 73 72 71 70 69 70 71 71 72 71 72 72 71 71 72 73 73 72 72 72 73 75 74 73 72 69 70 70
53 59 63 63 63 64 64 64 64 65 64 65 65 63 60 62 60 61 59 57 55 58 60 62 64 65 65 65 65 65 66 67 67 66 67 68 67 68 67 67 67 68 68 69 69 69 70 71 71 70 70 71 71 71 71 72 72 72 72 73 73 73 73 73 73 73 73 73 74 74 73 70 70 69 70 70 72 72 73 73 71 71 72 72 73 71 72 73 73 72 74 74 74 74 71 71 72
60 62 62 63 63 64 64 65 65 65 66 65 62 61 62 64 65 61 59 61 57 60 61 63 64 64 64 65 65 66 66 66 67 66 66 67 67 67 67 67 67 67 67 68 68 69 70 70 69 69 70 70 70 70 71 72 72 73 74 73 73 73 72 73 73 71 72 72 71 73 72 71 70 70 70 72 71 72 72 72 72 72 70 72 72 72 72 73 72 73 73 74 72 73 72 71 72
63 62 62 62 63 63 64 64 64 65 64 65 62 60 61 66 63 54 59 61 58 59 61 63 63 63 64 64 65 66 66 66 66 66 66 66 67 67 67 67 68 68 68 68 68 70 70 69 69 70 70 71 70 69 72 72 73 73 73 73 72 72 72 73 72 71 70 70 72 75 75 75 73 71 71 72 72 71 72 73 72 73 71 70 73 73 74 75 74 73 71 72 74 74 74 72 72
62 62 62 63 63 63 63 63 63 64 63 64 64 61 63 63 61 58 58 61 60 59 61 62 62 63 64 64 65 66 66 67 67 67 65 66 66 66 66 67 67 67 68 68 69 69 70 69 69 70 70 71 71 70 72 71 72 72 73 72 71 72 73 71 70 71 72 71 72 74 75 74 74 73 73 73 72 73 72 72 72 73 71 72 74 73 74 75 75 73 74 75 75 75 73 73 71
61 62 58 61 62 62 62 62 63 63 62 64 64 60 57 59 59 62 61 63 62 61 61 61 62 63 63 64 64 66 66 66 66 66 66 67 67 67 67 68 67 67 68 68 69 69 68 69 69 70 70 71 71 70 70 71 71 71 72 72 72 72 72 71 70 70 72 73 74 74 75 75 76 74 74 74 74 72 72 73 71 72 73 74 74 74 74 76 74 73 73 74 74 73 72 70 66
60 61 59 59 57 58 61 62 61 62 62 64 64 52 53 57 60 62 60 63 63 61 61 60 61 62 62 64 63 64 65 65 65 66 66 67 68 67 68 68 69 68 68 69 69 68 69 69 69 69 70 70 71 70 71 71 71 71 71 71 73 72 70 70 70 71 73 73 73 74 74 75 75 75 75 75 74 72 72 73 72 71 74 75 76 76 72 73 73 73 72 72 73 72 70 69 65
57 59 55 53 51 53 60 61 61 60 63 64 62 54 53 57 60 62 60 62 60 59 60 60 60 61 62 62 62 63 64 65 64 65 66 67 67 68 68 68 69 69 69 68 69 69 69 69 69 69 70 70 71 71 70 70 71 70 71 72 72 72 72 70 69 70 71 71 72 73 75 75 76 76 76 76 73 73 71 70 71 72 74 76 73 74 73 74 74 74 73 71 71 71 69 70 66
56 51 47 52 51 55 60 62 60 58 61 64 59 53 53 56 57 63 61 60 61 59 60 59 59 60 60 61 61 61 62 63 64 64 65 66 67 68 68 68 69 69 69 69 69 69 69 69 70 69 70 70 71 71 71 71 71 72 72 72 72 73 71 70 70 70 70 71 72 73 76 77 77 78 77 77 73 73 71 71 71 74 76 75 74 74 76 74 75 74 74 73 72 69 69 67 68
55 50 49 50 54 54 57 61 60 62 62 62 60 55 56 55 59 64 64 59 60 59 59 59 58 58 59 59 60 61 62 62 64 64 65 66 67 67 68 69 69 69 69 69 69 69 68 68 70 69 69 69 70 69 71 72 73 72 72 71 70 72 70 70 71 71 71 72 72 73 76 77 78 77 77 77 75 73 72 71 70 73 75 74 73 72 74 75 76 68 76 74 75 74 67 61 65
47 51 48 54 52 52 51 59 62 62 62 58 60 58 57 56 59 63 63 59 59 57 58 57 57 57 58 58 59 60 62 62 63 64 64 65 67 68 68 70 69 69 70 69 69 68 67 68 69 69 70 69 70 71 72 72 72 73 72 72 73 71 70 69 70 71 72 72 74 75 76 77 77 77 78 77 76 72 72 73 73 74 75 74 74 72 75 74 76 72 73 74 74 74 68 65 63
31 42 46 48 54 55 53 54 60 61 61 58 59 59 58 56 59 62 63 61 58 56 57 56 56 56 57 57 58 59 60 61 62 65 64 65 66 67 68 69 69 69 70 69 70 71 70 69 70 71 70 70 70 72 73 73 72 73 71 71 71 73 73 71 70 71 71 73 71 74 77 76 76 77 77 77 76 73 73 74 74 76 75 75 75 73 72 74 73 72 71 73 75 74 72 71 69
35 39 42 48 42 50 52 56 62 60 58 57 56 55 54 55 58 62 62 61 57 56 57 58 56 55 57 57 57 58 60 60 62 64 64 65 66 67 68 69 69 69 70 70 71 71 70 70 70 72 72 70 71 72 72 71 70 70 68 70 70 71 71 71 71 70 71 72 72 73 76 77 77 77 78 78 77 75 73 72 74 75 74 74 74 72 73 72 74 73 73 71 73 73 73 72 70
45 49 49 49 48 54 58 59 62 61 58 56 57 57 56 56 58 61 63 63 58 56 56 56 57 56 56 55 56 58 60 60 64 64 64 65 66 67 68 69 69 69 71 71 70 70 69 70 71 71 72 72 72 71 71 69 69 70 70 68 67 68 71 71 70 70 70 70 73 73 76 74 77 77 78 78 76 77 76 75 76 76 74 74 74 74 73 73 75 75 74 76 70 70 68 70 69
33 35 39 44 52 43 57 58 62 62 57 55 58 56 56 56 58 60 62 63 57 56 55 56 56 56 57 57 57 58 59 63 64 64 64 65 66 67 68 69 70 69 70 70 70 69 70 69 70 71 72 72 71 71 71 70 71 69 68 68 67 67 69 69 69 70 69 69 75 77 76 75 77 77 77 78 78 76 75 74 76 75 75 75 76 75 75 75 76 73 71 70 71 69 69 68 69
33 23 36 36 47 58 59 60 62 61 58 54 57 55 54 55 57 59 60 62 61 59 56 56 57 57 58 58 59 60 60 61 61 62 64 64 65 67 67 68 69 69 69 69 70 70 70 70 71 72 71 71 71 72 72 71 71 72 70 69 68 67 68 69 68 69 70 69 72 75 76 76 77 76 76 77 77 75 75 75 75 76 76 75 75 73 73 74 74 73 73 69 66 69 69 69 72
22 35 33 28 49 48 47 58 60 60 57 55 57 54 54 58 59 59 60 61 63 65 64 62 60 58 58 57 58 60 59 61 61 61 62 64 65 67 67 68 69 68 69 69 69 69 69 71 72 73 72 71 72 72 73 72 72 73 73 72 72 70 70 71 72 72 72 71 71 73 75 76 76 74 75 75 75 76 77 76 75 74 77 76 75 74 73 72 74 72 71 71 71 66 65 67 70
18 26 28 31 50 51 51 56 58 59 59 59 56 54 52 54 53 56 59 61 64 65 65 64 63 62 60 59 59 60 60 62 61 61 62 64 65 66 67 68 68 68 68 68 68 68 68 69 72 73 73 72 72 73 73 74 73 73 73 72 72 72 71 71 70 70 71 72 71 73 73 75 76 75 75 76 76 76 77 77 76 75 76 76 74 73 73 70 71 72 74 74 72 68 65 67 70
13 25 24 31 50 54 58 58 56 54 54 57 56 44 42 49 51 54 58 60 60 63 63 63 63 62 62 59 59 60 61 63 62 62 63 65 65 66 67 68 68 67 68 67 67 67 68 69 71 73 73 73 71 72 74 73 73 72 72 71 70 69 70 69 68 68 68 69 69 70 72 73 74 75 75 76 75 76 77 77 77 75 75 76 75 72 72 72 72 71 73 72 71 73 72 67 66
17 26 37 40 49 55 57 57 53 46 42 54 58 48 36 48 49 54 56 58 60 62 62 62 63 64 62 60 59 59 60 61 62 62 63 63 65 66 67 68 67 67 67 67 67 67 68 69 71 72 73 73 72 73 74 73 73 72 71 69 68 69 69 69 71 69 67 69 71 72 72 74 75 73 73 75 75 77 77 77 77 76 74 74 75 75 72 70 70 71 74 73 72 75 74 71 69
12 42 43 50 54 54 55 55 49 51 55 56 54 51 43 41 47 56 57 56 57 59 60 62 64 64 62 61 59 60 60 60 61 62 63 64 65 65 66 67 66 66 67 67 67 67 69 71 72 72 73 73 72 73 73 73 73 72 72 71 70 69 66 69 72 72 71 73 72 72 72 72 75 75 74 76 76 76 77 77 77 76 75 74 74 73 72 71 73 74 76 76 77 76 75 72 70
26 49 51 51 52 55 54 49 49 53 52 46 52 53 45 43 47 54 57 54 55 56 58 60 63 64 63 63 61 60 60 61 61 61 62 63 65 65 66 66 66 66 67 67 67 67 68 70 72 72 73 73 73 73 73 73 73 73 72 70 71 71 70 70 72 72 72 74 73 74 74 72 74 76 76 75 76 75 76 76 77 76 75 75 75 73 73 72 72 74 75 76 75 76 75 74 74
52 53 53 54 53 51 50 46 47 47 43 38 51 52 41 33 42 47 55 54 54 54 56 58 61 63 64 63 63 61 60 62 61 61 62 63 64 65 65 66 66 66 67 67 67 67 68 70 71 72 72 73 73 73 73 73 73 73 72 72 72 72 71 72 72 72 73 75 73 74 75 75 72 73 75 76 76 76 75 76 75 74 74 73 74 74 74 74 74 75 74 72 74 74 76 74 73
52 50 49 49 48 47 45 46 47 45 39 41 46 52 47 29 39 45 49 52 51 52 53 55 59 61 63 64 64 64 61 61 61 62 62 63 64 65 65 65 66 66 67 67 67 67 67 68 70 71 72 72 73 73 73 73 73 73 72 72 72 72 72 72 72 73 73 74 74 72 73 74 73 72 72 74 74 73 74 76 73 73 74 75 75 75 73 72 71 72 72 75 76 75 74 74 73
48 47 45 45 46 46 46 45 46 39 34 42 46 49 50 32 33 45 50 54 54 54 54 55 56 58 60 63 64 63 62 61 61 61 62 63 64 65 65 66 66 67 67 67 67 67 67 68 69 71 72 73 73 72 73 72 71 72 72 72 72 72 73 71 72 71 72 73 72 72 74 74 74 72 74 73 72 71 74 75 75 75 76 75 74 74 73 73 73 73 73 74 74 75 76 75 73
44 45 39 31 41 44 36 41 37 35 31 43 49 51 47 43 42 46 47 48 53 56 57 57 57 58 58 60 63 64 64 62 61 62 62 62 63 64 64 66 67 68 67 67 66 66 67 68 69 70 72 72 73 72 73 73 72 72 72 72 72 73 73 72 72 72 72 72 72 72 74 73 74 74 73 72 71 72 74 76 75 75 76 76 76 76 76 76 76 73 73 72 73 74 74 74 73
42 37 36 30 32 28 31 35 35 34 34 45 47 51 42 44 44 49 46 51 55 56 59 59 59 59 60 60 61 62 64 63 62 61 62 63 63 63 65 66 67 67 66 66 66 67 67 67 70 69 71 72 73 72 72 73 73 73 73 72 72 72 73 72 71 70 70 72 73 72 70 69 72 71 71 73 72 71 72 73 75 75 77 77 77 77 77 76 77 75 74 74 71 74 75 75 75
40 21 27 23 30 19 21 30 22 21 34 46 50 45 33 33 46 51 52 54 56 58 60 62 63 63 62 61 61 61 63 64 63 62 61 62 62 64 64 65 66 66 66 66 66 67 68 68 69 71 71 72 72 72 73 73 72 72 73 72 72 72 71 71 71 71 71 71 69 70 72 70 69 70 71 73 74 74 73 74 75 74 76 78 78 77 74 76 77 76 76 75 74 74 75 74 73
28 18 20 21 17 26 14 30 31 32 36 39 45 39 43 40 50 52 53 54 56 59 60 61 62 62 64 63 62 61 62 63 63 63 62 62 63 64 64 65 66 66 67 66 66 67 68 68 70 70 70 71 71 72 72 72 72 72 73 73 72 73 73 72 73 74 73 72 72 71 73 74 72 72 74 74 73 74 74 74 75 74 76 75 77 77 77 75 76 75 75 76 75 72 74 74 74
24 19 17 22 30 31 37 37 33 34 33 29 45 42 45 46 46 48 53 54 57 57 58 59 61 62 64 63 63 63 63 64 64 64 63 64 64 63 64 65 65 65 66 66 67 68 69 69 69 70 70 70 70 71 70 71 73 72 73 72 71 72 71 71 69 71 69 71 72 72 71 70 72 74 72 73 73 75 75 74 73 71 74 77 76 77 76 76 77 75 73 76 75 73 74 74 73
26 23 23 34 34 33 31 25 35 32 26 29 39 34 36 39 28 50 52 52 54 56 56 58 61 61 61 62 65 66 65 65 66 66 65 64 64 64 64 66 68 68 66 66 68 68 69 69 69 68 69 70 68 69 68 70 71 71 72 72 72 72 69 68 68 68 69 71 73 73 72 72 71 71 72 70 73 73 75 76 75 75 74 74 75 74 75 76 78 76 75 76 74 76 75 75 75
25 30 35 28 28 27 37 34 27 24 25 26 32 35 37 41 38 47 51 52 51 54 57 57 56 59 60 61 63 65 66 66 66 65 65 65 64 64 68 68 68 67 67 66 66 67 68 68 67 67 68 67 67 66 67 69 69 69 69 70 70 71 70 69 70 71 71 70 69 70 71 71 71 73 74 75 74 72 73 74 76 74 74 76 75 75 77 77 77 76 75 74 75 77 76 75 76
33 32 29 36 35 38 33 32 32 28 29 31 29 34 25 44 40 44 49 53 54 54 56 56 58 59 60 61 62 64 65 66 66 65 65 65 64 66 67 68 68 68 67 65 66 65 65 66 66 67 67 68 67 66 67 68 68 68 68 70 71 73 73 71 72 72 69 69 70 69 70 69 71 71 72 73 73 72 72 72 71 72 71 72 73 73 74 75 77 76 74 72 73 77 76 76 75
29 29 30 34 37 37 37 39 35 29 30 30 27 25 31 39 46 50 51 55 56 56 57 59 59 60 60 62 63 65 66 66 67 67 66 65 66 66 67 68 67 67 66 65 66 65 65 65 66 67 67 66 66 66 67 68 68 69 70 70 69 71 71 71 70 71 70 70 70 71 69 70 71 72 72 72 72 73 74 73 72 73 72 74 75 75 75 76 77 77 77 77 76 77 76 75 76
29 27 29 31 31 32 30 33 40 37 31 31 31 27 33 41 50 53 53 54 56 59 59 59 60 61 63 64 65 65 66 67 66 65 66 67 67 66 67 67 66 66 66 67 65 65 65 65 65 65 65 66 65 66 68 69 69 69 69 68 68 69 70 71 69 70 70 69 70 71 72 72 71 72 72 71 73 71 72 73 73 73 74 73 75 77 75 76 77 77 76 74 74 76 76 75 76